Weather History for Nebraska City, NE

Change the Weather History Date:

Saturday, September 14, 2013

  Actual Average (KSDA) Record (KSDA)
Temperature  
Mean Temperature 64 °F -  
Max Temperature 78 °F 77 °F 93 °F (1955)
Min Temperature 50 °F 54 °F 37 °F (1996)
Degree Days  
Heating Degree Days 1    
Growing Degree Days 14 (Base 50)    
Moisture  
Dew Point 51 °F    
Average Humidity 64    
Maximum Humidity 87    
Minimum Humidity 38    
Precipitation  
Precipitation 0.00 in - - ()
Sea Level Pressure  
Sea Level Pressure 30.02 in    
Wind  
Wind Speed 7 mph (SSE)    
Max Wind Speed 18 mph    
Max Gust Speed 23 mph    
Visibility 10 miles    
Events      
Averages and records for this station are not official NWS values.
T = Trace of Precipitation, MM = Missing Value Source: NWS Daily Summary

Daily Weather History Graph

Daily Weather History Graph

Search for Another Location

Airport:

Trip Planner

Search our weather history database for the weather conditions in past years. The results will help you decide how hot, cold, wet, or windy it might be!

Date:

Astronomy

Sep. 14, 2013 Rise Set
Actual Time 7:03 AM CDT 7:33 PM CDT
Civil Twilight 6:35 AM CDT 8:01 PM CDT
Nautical Twilight 6:03 AM CDT 8:33 PM CDT
Astronomical Twilight 5:30 AM CDT 9:06 PM CDT
Moon 4:16 PM CDT (9/14) 1:35 AM CDT (9/14)
Length of Visible Light 13h 25m
Length of Day
12h 30m
Waxing Gibbous, 72% of the Moon is Illuminated
Sep 14
Waxing Gibbous
Sep 19
Full
Sep 26
Last Quarter
Oct 4
New
Oct 11
First Quarter

Hourly Weather History & Observations

Time (CDT) Temp. Dew Point Humidity Pressure Visibility Wind Dir Wind Speed Gust Speed Precip Events Conditions
12:15 AM 58.3 °F 52.2 °F 80% 30.09 in 10.0 mi South 3.5 mph - N/A   Clear
12:35 AM 58.3 °F 51.8 °F 79% 30.09 in 10.0 mi South 3.5 mph - N/A   Clear
12:55 AM 57.7 °F 51.3 °F 79% 30.09 in 10.0 mi South 3.5 mph - N/A   Clear
1:15 AM 57.7 °F 50.5 °F 77% 30.09 in 10.0 mi South 3.5 mph - N/A   Clear
1:35 AM 57.2 °F 50.4 °F 78% 30.09 in 10.0 mi SSE 4.6 mph - N/A   Clear
1:55 AM 57.0 °F 49.8 °F 77% 30.08 in 10.0 mi SSE 4.6 mph - N/A   Clear
2:15 AM 56.3 °F 50.2 °F 80% 30.09 in 10.0 mi SSE 3.5 mph - N/A   Clear
2:35 AM 55.9 °F 50.2 °F 81% 30.09 in 10.0 mi SSE 4.6 mph - N/A   Clear
2:55 AM 55.4 °F 50.0 °F 82% 30.10 in 10.0 mi South 3.5 mph - N/A   Clear
3:15 AM 55.4 °F 49.3 °F 80% 30.09 in 10.0 mi SSE 3.5 mph - N/A   Clear
3:35 AM 55.4 °F 48.7 °F 78% 30.09 in 10.0 mi SSE 5.8 mph - N/A   Clear
3:55 AM 54.9 °F 47.5 °F 76% 30.08 in 10.0 mi SSE 4.6 mph - N/A   Clear
4:15 AM 53.2 °F 47.3 °F 80% 30.08 in 10.0 mi SSE 4.6 mph - N/A   Clear
4:35 AM 52.7 °F 47.5 °F 82% 30.08 in 10.0 mi Calm Calm - N/A   Clear
4:55 AM 53.1 °F 47.3 °F 81% 30.08 in 10.0 mi SSE 3.5 mph - N/A   Clear
5:15 AM 52.0 °F 46.9 °F 83% 30.08 in 10.0 mi South 3.5 mph - N/A   Clear
5:35 AM 51.8 °F 46.6 °F 82% 30.09 in 10.0 mi South 4.6 mph - N/A   Clear
5:55 AM 51.4 °F 46.4 °F 83% 30.09 in 10.0 mi South 5.8 mph - N/A   Clear
6:15 AM 50.5 °F 46.4 °F 86% 30.09 in 10.0 mi South 5.8 mph - N/A   Clear
6:35 AM 50.9 °F 46.6 °F 85% 30.09 in 10.0 mi South 5.8 mph - N/A   Clear
6:55 AM 50.0 °F 46.4 °F 87% 30.09 in 10.0 mi South 4.6 mph - N/A   Clear
7:15 AM 51.8 °F 47.3 °F 85% 30.09 in 10.0 mi South 4.6 mph - N/A   Clear
7:35 AM 53.1 °F 48.4 °F 84% 30.10 in 10.0 mi South 4.6 mph - N/A   Clear
7:55 AM 54.0 °F 49.3 °F 84% 30.10 in 10.0 mi South 5.8 mph - N/A   Clear
8:15 AM 54.5 °F 49.5 °F 83% 30.09 in 10.0 mi SSE 6.9 mph - N/A   Clear
8:35 AM 54.9 °F 50.2 °F 84% 30.09 in 10.0 mi South 6.9 mph - N/A   Clear
8:55 AM 56.3 °F 51.1 °F 83% 30.09 in 10.0 mi South 6.9 mph - N/A   Clear
9:15 AM 57.2 °F 51.3 °F 81% 30.10 in 10.0 mi South 8.1 mph - N/A   Clear
9:35 AM 58.5 °F 51.1 °F 76% 30.09 in 10.0 mi South 9.2 mph - N/A   Clear
9:55 AM 59.9 °F 52.0 °F 75% 30.09 in 10.0 mi South 10.4 mph - N/A   Clear
10:15 AM 62.4 °F 52.5 °F 70% 30.09 in 10.0 mi South 11.5 mph - N/A   Clear
10:35 AM 64.2 °F 51.3 °F 63% 30.09 in 10.0 mi South 13.8 mph 17.3 mph N/A   Clear
10:55 AM 65.3 °F 50.9 °F 60% 30.09 in 10.0 mi South 13.8 mph - N/A   Clear
11:15 AM 66.4 °F 51.4 °F 59% 30.08 in 10.0 mi South 12.7 mph 20.7 mph N/A   Clear
11:35 AM 67.5 °F 51.3 °F 56% 30.07 in 10.0 mi South 11.5 mph - N/A   Clear
11:55 AM 70.2 °F 51.8 °F 52% 30.07 in 10.0 mi South 15.0 mph - N/A   Clear
12:15 PM 69.8 °F 51.6 °F 52% 30.06 in 10.0 mi South 15.0 mph 18.4 mph N/A   Clear
12:35 PM 72.3 °F 52.2 °F 49% 30.05 in 10.0 mi SSE 13.8 mph - N/A   Clear
12:55 PM 73.8 °F 50.9 °F 45% 30.04 in 10.0 mi South 16.1 mph 23.0 mph N/A   Clear
1:15 PM 74.3 °F 50.9 °F 44% 30.04 in 10.0 mi South 15.0 mph 21.9 mph N/A   Clear
1:35 PM 73.8 °F 51.6 °F 46% 30.02 in 10.0 mi SSE 13.8 mph 19.6 mph N/A   Clear
1:55 PM 73.6 °F 51.6 °F 46% 30.01 in 10.0 mi South 15.0 mph 19.6 mph N/A   Clear
2:15 PM 73.8 °F 51.4 °F 45% 30.00 in 10.0 mi South 13.8 mph 23.0 mph N/A   Clear
2:35 PM 76.1 °F 52.3 °F 43% 29.99 in 10.0 mi SSE 13.8 mph 19.6 mph N/A   Clear
2:55 PM 76.5 °F 48.9 °F 38% 29.99 in 10.0 mi South 12.7 mph 18.4 mph N/A   Clear
3:15 PM 76.8 °F 51.1 °F 40% 29.97 in 10.0 mi South 12.7 mph 18.4 mph N/A   Clear
3:35 PM 78.1 °F 51.6 °F 40% 29.96 in 10.0 mi South 12.7 mph 21.9 mph N/A   Clear
3:55 PM 78.1 °F 50.2 °F 38% 29.96 in 10.0 mi South 18.4 mph 23.0 mph N/A   Clear
4:15 PM 77.7 °F 51.1 °F 39% 29.95 in 10.0 mi South 16.1 mph - N/A   Clear
4:35 PM 75.9 °F 52.2 °F 43% 29.95 in 10.0 mi South 13.8 mph - N/A   Clear
4:55 PM 75.0 °F 53.2 °F 47% 29.94 in 10.0 mi South 12.7 mph - N/A   Clear
5:15 PM 75.2 °F 52.3 °F 45% 29.94 in 10.0 mi South 11.5 mph - N/A   Clear
5:35 PM 75.6 °F 53.4 °F 46% 29.94 in 10.0 mi South 12.7 mph - N/A   Clear
5:55 PM 75.2 °F 54.3 °F 48% 29.93 in 10.0 mi SSE 15.0 mph 19.6 mph N/A   Clear
6:15 PM 74.3 °F 54.7 °F 50% 29.93 in 10.0 mi SSE 10.4 mph - N/A   Clear
6:35 PM 73.2 °F 54.1 °F 51% 29.93 in 10.0 mi SSE 9.2 mph - N/A   Clear
6:55 PM 72.5 °F 53.4 °F 51% 29.92 in 10.0 mi SSE 10.4 mph - N/A   Clear
7:15 PM 71.8 °F 53.6 °F 53% 29.91 in 10.0 mi SSE 6.9 mph - N/A   Clear
7:35 PM 71.2 °F 53.6 °F 54% 29.90 in 10.0 mi SSE 9.2 mph - N/A   Clear
7:55 PM 70.9 °F 53.4 °F 54% 29.91 in 10.0 mi SSE 6.9 mph - N/A   Clear
8:15 PM 69.8 °F 53.8 °F 57% 29.91 in 10.0 mi SSE 8.1 mph - N/A   Clear
8:35 PM 69.4 °F 54.0 °F 58% 29.91 in 10.0 mi SSE 9.2 mph - N/A   Clear
8:55 PM 69.1 °F 54.1 °F 59% 29.91 in 10.0 mi SSE 9.2 mph - N/A   Clear
9:15 PM 68.9 °F 54.5 °F 60% 29.91 in 10.0 mi South 10.4 mph - N/A   Clear
9:35 PM 68.4 °F 54.5 °F 61% 29.90 in 10.0 mi South 13.8 mph - N/A   Scattered Clouds
9:55 PM 69.3 °F 53.4 °F 57% 29.90 in 10.0 mi South 15.0 mph - N/A   Scattered Clouds
10:15 PM 69.4 °F 52.9 °F 56% 29.90 in 10.0 mi South 12.7 mph 18.4 mph N/A   Clear
10:35 PM 69.3 °F 52.7 °F 56% 29.90 in 10.0 mi South 12.7 mph - N/A   Clear
10:55 PM 69.1 °F 52.7 °F 56% 29.90 in 10.0 mi South 13.8 mph - N/A   Clear
11:15 PM 68.9 °F 52.9 °F 57% 29.91 in 10.0 mi South 11.5 mph 19.6 mph N/A   Clear
11:35 PM 68.4 °F 53.1 °F 58% 29.91 in 10.0 mi South 9.2 mph - N/A   Clear
11:55 PM 68.4 °F 52.7 °F 57% 29.91 in 10.0 mi South 12.7 mph - N/A   Clear